����������;��������(kVARh)
2016-07-18 00:00;9,35
2016-07-18 00:15;14,15
2016-07-18 00:30;14,5
2016-07-18 00:45;9,6
2016-07-18 01:00;6,85
2016-07-18 01:15;6,15
2016-07-18 01:30;5,7
2016-07-18 01:45;9,9
2016-07-18 02:00;11,35
2016-07-18 02:15;11,65
2016-07-18 02:30;12,15
2016-07-18 02:45;13,1
2016-07-18 03:00;9,95
2016-07-18 03:15;8,5
2016-07-18 03:30;7,85
2016-07-18 03:45;14,05
2016-07-18 04:00;9,8
2016-07-18 04:15;15,1
2016-07-18 04:30;9,4
2016-07-18 04:45;8
2016-07-18 05:00;11,45
2016-07-18 05:15;11
2016-07-18 05:30;8,85
2016-07-18 05:45;12,7
2016-07-18 06:00;7,6
2016-07-18 06:15;8,3
2016-07-18 06:30;11,5
2016-07-18 06:45;8,85
2016-07-18 07:00;12,95
2016-07-18 07:15;13,95
2016-07-18 07:30;19,9
2016-07-18 07:45;32,15
2016-07-18 08:00;27,8
2016-07-18 08:15;28,2
2016-07-18 08:30;26,4
2016-07-18 08:45;31,4
2016-07-18 09:00;33,2
2016-07-18 09:15;39,75
2016-07-18 09:30;38,15
2016-07-18 09:45;34,9
2016-07-18 10:00;36,3
2016-07-18 10:15;41,4
2016-07-18 10:30;41,15
2016-07-18 10:45;45,05
2016-07-18 11:00;49,7
2016-07-18 11:15;46,95
2016-07-18 11:30;51,25
2016-07-18 11:45;60,6
2016-07-18 12:00;74,5
2016-07-18 12:15;67,75
2016-07-18 12:30;52,75
2016-07-18 12:45;64,5
2016-07-18 13:00;58,55
2016-07-18 13:15;50,65
2016-07-18 13:30;59,25
2016-07-18 13:45;58,4
2016-07-18 14:00;58,3
2016-07-18 14:15;54,3
2016-07-18 14:30;47,05
2016-07-18 14:45;52,7
2016-07-18 15:00;40,95
2016-07-18 15:15;39,5
2016-07-18 15:30;38,55
2016-07-18 15:45;37,7
2016-07-18 16:00;30,15
2016-07-18 16:15;30,35
2016-07-18 16:30;31,25
2016-07-18 16:45;32
2016-07-18 17:00;28,8
2016-07-18 17:15;22,65
2016-07-18 17:30;21,45
2016-07-18 17:45;27,2
2016-07-18 18:00;22
2016-07-18 18:15;21,1
2016-07-18 18:30;17,85
2016-07-18 18:45;16,7
2016-07-18 19:00;18,35
2016-07-18 19:15;11,1
2016-07-18 19:30;7,85
2016-07-18 19:45;6,45
2016-07-18 20:00;9,65
2016-07-18 20:15;11,05
2016-07-18 20:30;16,8
2016-07-18 20:45;12,75
2016-07-18 21:00;9,55
2016-07-18 21:15;5,15
2016-07-18 21:30;7,75
2016-07-18 21:45;5,25
2016-07-18 22:00;6,5
2016-07-18 22:15;7,3
2016-07-18 22:30;9,05
2016-07-18 22:45;9,1
2016-07-18 23:00;15,95
2016-07-18 23:15;11,75
2016-07-18 23:30;12,25
2016-07-18 23:45;14,4
2016-07-19 00:00;11,4
2016-07-19 00:15;10,05
2016-07-19 00:30;2,95
2016-07-19 00:45;2,8
2016-07-19 01:00;3,15
2016-07-19 01:15;3,05
2016-07-19 01:30;1,7
2016-07-19 01:45;1
2016-07-19 02:00;1,45
2016-07-19 02:15;2,4
2016-07-19 02:30;0,05
2016-07-19 02:45;0,15
2016-07-19 03:00;0,05
2016-07-19 03:15;0,2
2016-07-19 03:30;0,45
2016-07-19 03:45;0,1
2016-07-19 04:00;0,35
2016-07-19 04:15;0,4
2016-07-19 04:30;0,95
2016-07-19 04:45;0,1
2016-07-19 05:00;0,5
2016-07-19 05:15;0,25
2016-07-19 05:30;0,05
2016-07-19 05:45;0,45
2016-07-19 06:00;2,8
2016-07-19 06:15;3,3
2016-07-19 06:30;3,45
2016-07-19 06:45;0,15
2016-07-19 07:00;4,2
2016-07-19 07:15;7,2
2016-07-19 07:30;5,95
2016-07-19 07:45;26,15
2016-07-19 08:00;13,25
2016-07-19 08:15;16,05
2016-07-19 08:30;17
2016-07-19 08:45;19,7
2016-07-19 09:00;24,75
2016-07-19 09:15;28,45
2016-07-19 09:30;36,85
2016-07-19 09:45;37,1
2016-07-19 10:00;41,3
2016-07-19 10:15;49,9
2016-07-19 10:30;39,9
2016-07-19 10:45;47,3
2016-07-19 11:00;50,05
2016-07-19 11:15;43,15
2016-07-19 11:30;60
2016-07-19 11:45;53,65
2016-07-19 12:00;50,7
2016-07-19 12:15;56,7
2016-07-19 12:30;51,55
2016-07-19 12:45;57,65
2016-07-19 13:00;63,35
2016-07-19 13:15;53,2
2016-07-19 13:30;59,9
2016-07-19 13:45;53,1
2016-07-19 14:00;54,65
2016-07-19 14:15;51,6
2016-07-19 14:30;62,05
2016-07-19 14:45;65,45
2016-07-19 15:00;55,95
2016-07-19 15:15;48,5
2016-07-19 15:30;51,45
2016-07-19 15:45;48,15
2016-07-19 16:00;52,6
2016-07-19 16:15;45,45
2016-07-19 16:30;39,9
2016-07-19 16:45;40,5
2016-07-19 17:00;33,35
2016-07-19 17:15;31,45
2016-07-19 17:30;36,55
2016-07-19 17:45;30,85
2016-07-19 18:00;28,75
2016-07-19 18:15;31,35
2016-07-19 18:30;26
2016-07-19 18:45;25,8
2016-07-19 19:00;26,65
2016-07-19 19:15;14,4
2016-07-19 19:30;17,5
2016-07-19 19:45;17,5
2016-07-19 20:00;16,15
2016-07-19 20:15;12,4
2016-07-19 20:30;11,3
2016-07-19 20:45;10,7
2016-07-19 21:00;10,2
2016-07-19 21:15;11,1
2016-07-19 21:30;10,25
2016-07-19 21:45;13,2
2016-07-19 22:00;12,75
2016-07-19 22:15;14
2016-07-19 22:30;12,95
2016-07-19 22:45;15,3
2016-07-19 23:00;19,4
2016-07-19 23:15;14,4
2016-07-19 23:30;14,9
2016-07-19 23:45;17,5
2016-07-20 00:00;3
2016-07-20 00:15;0,05
2016-07-20 00:30;0,75
2016-07-20 00:45;1,1
2016-07-20 01:00;1,3
2016-07-20 01:15;2
2016-07-20 01:30;2,55
2016-07-20 01:45;3,9
2016-07-20 02:00;4,55
2016-07-20 02:15;5,15
2016-07-20 02:30;4,2
2016-07-20 02:45;1,45
2016-07-20 03:00;1,15
2016-07-20 03:15;1,9
2016-07-20 03:30;2,05
2016-07-20 03:45;1,95
2016-07-20 04:00;0,85
2016-07-20 04:15;1,3
2016-07-20 04:30;1,3
2016-07-20 04:45;2,45
2016-07-20 05:00;3,15
2016-07-20 05:15;1,55
2016-07-20 05:30;2,55
2016-07-20 05:45;1,65
2016-07-20 06:00;14,05
2016-07-20 06:15;13,75
2016-07-20 06:30;12,25
2016-07-20 06:45;19,3
2016-07-20 07:00;16,15
2016-07-20 07:15;28,8
2016-07-20 07:30;19,7
2016-07-20 07:45;34,8
2016-07-20 08:00;25,55
2016-07-20 08:15;19
2016-07-20 08:30;26,45
2016-07-20 08:45;22,6
2016-07-20 09:00;24,5
2016-07-20 09:15;31,3
2016-07-20 09:30;25,2
2016-07-20 09:45;39,9
2016-07-20 10:00;55,85
2016-07-20 10:15;50,35
2016-07-20 10:30;43,3
2016-07-20 10:45;45,8
2016-07-20 11:00;49,75
2016-07-20 11:15;52,15
2016-07-20 11:30;46,3
2016-07-20 11:45;45,75
2016-07-20 12:00;46,95
2016-07-20 12:15;50,8
2016-07-20 12:30;53,7
2016-07-20 12:45;44,2
2016-07-20 13:00;47,05
2016-07-20 13:15;45,3
2016-07-20 13:30;44,3
2016-07-20 13:45;43,9
2016-07-20 14:00;47,45
2016-07-20 14:15;52,65
2016-07-20 14:30;43,1
2016-07-20 14:45;42,9
2016-07-20 15:00;49,35
2016-07-20 15:15;34,1
2016-07-20 15:30;32,75
2016-07-20 15:45;38,45
2016-07-20 16:00;37,85
2016-07-20 16:15;28,4
2016-07-20 16:30;28,4
2016-07-20 16:45;30,45
2016-07-20 17:00;28,9
2016-07-20 17:15;22,15
2016-07-20 17:30;27,2
2016-07-20 17:45;34,85
2016-07-20 18:00;27,4
2016-07-20 18:15;20,55
2016-07-20 18:30;18,5
2016-07-20 18:45;17,15
2016-07-20 19:00;18,4
2016-07-20 19:15;12,35
2016-07-20 19:30;10,35
2016-07-20 19:45;10,1
2016-07-20 20:00;9,1
2016-07-20 20:15;4,5
2016-07-20 20:30;0,8
2016-07-20 20:45;1,1
2016-07-20 21:00;0,2
2016-07-20 21:15;1,15
2016-07-20 21:30;1,25
2016-07-20 21:45;2,8
2016-07-20 22:00;5,6
2016-07-20 22:15;6,25
2016-07-20 22:30;4,05
2016-07-20 22:45;4
2016-07-20 23:00;9,35
2016-07-20 23:15;9,4
2016-07-20 23:30;7,7
2016-07-20 23:45;5,05
2016-07-21 00:00;0
2016-07-21 00:15;0
2016-07-21 00:30;0,05
2016-07-21 00:45;0,3
2016-07-21 01:00;0,6
2016-07-21 01:15;0,05
2016-07-21 01:30;0,4
2016-07-21 01:45;0,35
2016-07-21 02:00;0,1
2016-07-21 02:15;0,8
2016-07-21 02:30;1,1
2016-07-21 02:45;1
2016-07-21 03:00;1,25
2016-07-21 03:15;0,65
2016-07-21 03:30;1,15
2016-07-21 03:45;0,45
2016-07-21 04:00;0,05
2016-07-21 04:15;0,2
2016-07-21 04:30;0,4
2016-07-21 04:45;0
2016-07-21 05:00;0,05
2016-07-21 05:15;0,15
2016-07-21 05:30;0,05
2016-07-21 05:45;0,05
2016-07-21 06:00;2,5
2016-07-21 06:15;3,6
2016-07-21 06:30;3,05
2016-07-21 06:45;8,55
2016-07-21 07:00;6,65
2016-07-21 07:15;9,5
2016-07-21 07:30;13,4
2016-07-21 07:45;19,2
2016-07-21 08:00;8,05
2016-07-21 08:15;9,4
2016-07-21 08:30;11,5
2016-07-21 08:45;7,5
2016-07-21 09:00;9,7
2016-07-21 09:15;26,2
2016-07-21 09:30;24,95
2016-07-21 09:45;30,05
2016-07-21 10:00;20,65
2016-07-21 10:15;21,25
2016-07-21 10:30;23,5
2016-07-21 10:45;26,95
2016-07-21 11:00;30,55
2016-07-21 11:15;38,2
2016-07-21 11:30;31,75
2016-07-21 11:45;44,2
2016-07-21 12:00;46,25
2016-07-21 12:15;47,8
2016-07-21 12:30;49,2
2016-07-21 12:45;45,8
2016-07-21 13:00;47
2016-07-21 13:15;44,3
2016-07-21 13:30;44,65
2016-07-21 13:45;43,9
2016-07-21 14:00;34,95
2016-07-21 14:15;40,2
2016-07-21 14:30;42,8
2016-07-21 14:45;37,25
2016-07-21 15:00;32,65
2016-07-21 15:15;39,4
2016-07-21 15:30;29,6
2016-07-21 15:45;32,15
2016-07-21 16:00;28,5
2016-07-21 16:15;21,8
2016-07-21 16:30;26,3
2016-07-21 16:45;25,35
2016-07-21 17:00;16,7
2016-07-21 17:15;17,75
2016-07-21 17:30;21,05
2016-07-21 17:45;15,2
2016-07-21 18:00;9,7
2016-07-21 18:15;9
2016-07-21 18:30;9
2016-07-21 18:45;6,2
2016-07-21 19:00;8,55
2016-07-21 19:15;4,35
2016-07-21 19:30;6,3
2016-07-21 19:45;6,05
2016-07-21 20:00;2,1
2016-07-21 20:15;0,15
2016-07-21 20:30;0,85
2016-07-21 20:45;3,15
2016-07-21 21:00;3,5
2016-07-21 21:15;2,2
2016-07-21 21:30;2,9
2016-07-21 21:45;6
2016-07-21 22:00;6,95
2016-07-21 22:15;6,8
2016-07-21 22:30;8
2016-07-21 22:45;6,1
2016-07-21 23:00;10
2016-07-21 23:15;5,25
2016-07-21 23:30;4,6
2016-07-21 23:45;5,8
2016-07-22 00:00;2,2
2016-07-22 00:15;4,85
2016-07-22 00:30;1,1
2016-07-22 00:45;1,55
2016-07-22 01:00;2,3
2016-07-22 01:15;0,85
2016-07-22 01:30;0
2016-07-22 01:45;0
2016-07-22 02:00;0
2016-07-22 02:15;0
2016-07-22 02:30;0
2016-07-22 02:45;0
2016-07-22 03:00;0,15
2016-07-22 03:15;0,5
2016-07-22 03:30;0,05
2016-07-22 03:45;0,1
2016-07-22 04:00;0,1
2016-07-22 04:15;0
2016-07-22 04:30;0,4
2016-07-22 04:45;0,05
2016-07-22 05:00;0,15
2016-07-22 05:15;0
2016-07-22 05:30;0,15
2016-07-22 05:45;0,35
2016-07-22 06:00;1,5
2016-07-22 06:15;4,5
2016-07-22 06:30;5,15
2016-07-22 06:45;9,9
2016-07-22 07:00;18,7
2016-07-22 07:15;17,5
2016-07-22 07:30;17,75
2016-07-22 07:45;21,7
2016-07-22 08:00;6,35
2016-07-22 08:15;16,95
2016-07-22 08:30;23,95
2016-07-22 08:45;15,15
2016-07-22 09:00;26,15
2016-07-22 09:15;21,05
2016-07-22 09:30;26,1
2016-07-22 09:45;28,35
2016-07-22 10:00;16,2
2016-07-22 10:15;21,6
2016-07-22 10:30;22,8
2016-07-22 10:45;23,1
2016-07-22 11:00;30,2
2016-07-22 11:15;35,9
2016-07-22 11:30;27,35
2016-07-22 11:45;40,95
2016-07-22 12:00;41,8
2016-07-22 12:15;42,3
2016-07-22 12:30;37,2
2016-07-22 12:45;28,1
2016-07-22 13:00;36,1
2016-07-22 13:15;36,9
2016-07-22 13:30;32,25
2016-07-22 13:45;26,65
2016-07-22 14:00;34,05
2016-07-22 14:15;33,15
2016-07-22 14:30;31,15
2016-07-22 14:45;33,15
2016-07-22 15:00;34,75
2016-07-22 15:15;32,15
2016-07-22 15:30;23,1
2016-07-22 15:45;24,7
2016-07-22 16:00;23,8
2016-07-22 16:15;20,4
2016-07-22 16:30;17,7
2016-07-22 16:45;21,4
2016-07-22 17:00;26
2016-07-22 17:15;19,3
2016-07-22 17:30;20,8
2016-07-22 17:45;24,3
2016-07-22 18:00;17,9
2016-07-22 18:15;14,25
2016-07-22 18:30;11,05
2016-07-22 18:45;10,1
2016-07-22 19:00;13
2016-07-22 19:15;4,6
2016-07-22 19:30;4,95
2016-07-22 19:45;7,9
2016-07-22 20:00;6,3
2016-07-22 20:15;6,75
2016-07-22 20:30;1,7
2016-07-22 20:45;0,65
2016-07-22 21:00;0,05
2016-07-22 21:15;1,8
2016-07-22 21:30;2,9
2016-07-22 21:45;2,85
2016-07-22 22:00;4,15
2016-07-22 22:15;6,65
2016-07-22 22:30;5,45
2016-07-22 22:45;1,7
2016-07-22 23:00;3
2016-07-22 23:15;1,3
2016-07-22 23:30;3,65
2016-07-22 23:45;4,7
2016-07-23 00:00;2,25
2016-07-23 00:15;2,5
2016-07-23 00:30;1,35
2016-07-23 00:45;0
2016-07-23 01:00;0,2
2016-07-23 01:15;0
2016-07-23 01:30;0,45
2016-07-23 01:45;0,9
2016-07-23 02:00;1,85
2016-07-23 02:15;0,5
2016-07-23 02:30;0,25
2016-07-23 02:45;0,55
2016-07-23 03:00;1
2016-07-23 03:15;0,6
2016-07-23 03:30;0,35
2016-07-23 03:45;0
2016-07-23 04:00;0,05
2016-07-23 04:15;0
2016-07-23 04:30;0
2016-07-23 04:45;0
2016-07-23 05:00;0
2016-07-23 05:15;0,35
2016-07-23 05:30;0
2016-07-23 05:45;0
2016-07-23 06:00;0
2016-07-23 06:15;0
2016-07-23 06:30;0,4
2016-07-23 06:45;0
2016-07-23 07:00;0
2016-07-23 07:15;0
2016-07-23 07:30;0
2016-07-23 07:45;0
2016-07-23 08:00;0
2016-07-23 08:15;0,05
2016-07-23 08:30;0,4
2016-07-23 08:45;0
2016-07-23 09:00;0
2016-07-23 09:15;0,05
2016-07-23 09:30;0
2016-07-23 09:45;0
2016-07-23 10:00;0
2016-07-23 10:15;0
2016-07-23 10:30;0
2016-07-23 10:45;0
2016-07-23 11:00;0
2016-07-23 11:15;0
2016-07-23 11:30;0,6
2016-07-23 11:45;0,9
2016-07-23 12:00;1,25
2016-07-23 12:15;0,45
2016-07-23 12:30;0
2016-07-23 12:45;0,25
2016-07-23 13:00;0
2016-07-23 13:15;0
2016-07-23 13:30;0,1
2016-07-23 13:45;0
2016-07-23 14:00;0
2016-07-23 14:15;0
2016-07-23 14:30;0,15
2016-07-23 14:45;0
2016-07-23 15:00;0
2016-07-23 15:15;0
2016-07-23 15:30;0,3
2016-07-23 15:45;0,9
2016-07-23 16:00;0,95
2016-07-23 16:15;0,65
2016-07-23 16:30;0,75
2016-07-23 16:45;3,05
2016-07-23 17:00;1,8
2016-07-23 17:15;2,3
2016-07-23 17:30;1,65
2016-07-23 17:45;2,6
2016-07-23 18:00;2,15
2016-07-23 18:15;6
2016-07-23 18:30;4,3
2016-07-23 18:45;5,5
2016-07-23 19:00;6,7
2016-07-23 19:15;4,75
2016-07-23 19:30;3,9
2016-07-23 19:45;2,05
2016-07-23 20:00;2,95
2016-07-23 20:15;2,1
2016-07-23 20:30;2,05
2016-07-23 20:45;2,3
2016-07-23 21:00;1,45
2016-07-23 21:15;1
2016-07-23 21:30;0,95
2016-07-23 21:45;1,45
2016-07-23 22:00;1,75
2016-07-23 22:15;5,75
2016-07-23 22:30;6,75
2016-07-23 22:45;7,6
2016-07-23 23:00;2,8
2016-07-23 23:15;0,35
2016-07-23 23:30;0,85
2016-07-23 23:45;2,3
2016-07-24 00:00;0,1
2016-07-24 00:15;0,1
2016-07-24 00:30;0
2016-07-24 00:45;0
2016-07-24 01:00;0,35
2016-07-24 01:15;0,05
2016-07-24 01:30;0
2016-07-24 01:45;0
2016-07-24 02:00;0
2016-07-24 02:15;0
2016-07-24 02:30;0
2016-07-24 02:45;0
2016-07-24 03:00;0,1
2016-07-24 03:15;0
2016-07-24 03:30;0
2016-07-24 03:45;0
2016-07-24 04:00;0
2016-07-24 04:15;0
2016-07-24 04:30;0
2016-07-24 04:45;0
2016-07-24 05:00;0
2016-07-24 05:15;0
2016-07-24 05:30;0
2016-07-24 05:45;0
2016-07-24 06:00;0,05
2016-07-24 06:15;0
2016-07-24 06:30;0,1
2016-07-24 06:45;0,05
2016-07-24 07:00;0,4
2016-07-24 07:15;0,9
2016-07-24 07:30;0,65
2016-07-24 07:45;1,85
2016-07-24 08:00;2,25
2016-07-24 08:15;0,65
2016-07-24 08:30;0,65
2016-07-24 08:45;0
2016-07-24 09:00;0
2016-07-24 09:15;0
2016-07-24 09:30;0
2016-07-24 09:45;0,2
2016-07-24 10:00;0,35
2016-07-24 10:15;0,2
2016-07-24 10:30;0
2016-07-24 10:45;0
2016-07-24 11:00;0,2
2016-07-24 11:15;0,45
2016-07-24 11:30;0,65
2016-07-24 11:45;1,8
2016-07-24 12:00;1,8
2016-07-24 12:15;0,05
2016-07-24 12:30;0,5
2016-07-24 12:45;0,45
2016-07-24 13:00;0,05
2016-07-24 13:15;0,4
2016-07-24 13:30;0
2016-07-24 13:45;0,4
2016-07-24 14:00;0,25
2016-07-24 14:15;0,15
2016-07-24 14:30;0,55
2016-07-24 14:45;0,05
2016-07-24 15:00;2,75
2016-07-24 15:15;3,6
2016-07-24 15:30;4,35
2016-07-24 15:45;3,35
2016-07-24 16:00;1,9
2016-07-24 16:15;2,2
2016-07-24 16:30;1,25
2016-07-24 16:45;4,75
2016-07-24 17:00;4,35
2016-07-24 17:15;2,2
2016-07-24 17:30;3,1
2016-07-24 17:45;2,85
2016-07-24 18:00;2,35
2016-07-24 18:15;4,9
2016-07-24 18:30;5,75
2016-07-24 18:45;6,3
2016-07-24 19:00;7,6
2016-07-24 19:15;6,55
2016-07-24 19:30;8,25
2016-07-24 19:45;5,55
2016-07-24 20:00;6,1
2016-07-24 20:15;6,05
2016-07-24 20:30;3,8
2016-07-24 20:45;5,05
2016-07-24 21:00;2,85
2016-07-24 21:15;2,7
2016-07-24 21:30;2,65
2016-07-24 21:45;2,15
2016-07-24 22:00;2,6
2016-07-24 22:15;2,7
2016-07-24 22:30;4,15
2016-07-24 22:45;3,8
2016-07-24 23:00;8,35
2016-07-24 23:15;7
2016-07-24 23:30;6,3
2016-07-24 23:45;8,2

